Time,TemperatureF,DewpointF,PressureIn,WindDirection,WindDirectionDegrees,WindSpeedMPH,WindSpeedGustMPH,Humidity,HourlyPrecipIn,Conditions,Clouds,dailyrainin,SoftwareType,DateUTC
2013-08-09 00:00:00,69.8,63.7,30.00,SE,136,0.0,0.0,81,0.00,,---,0.00,VWS V14.01,2013-08-09 05:00:00,
2013-08-09 00:03:00,69.7,63.6,30.01,SE,136,0.0,0.0,81,0.00,,---,0.00,VWS V14.01,2013-08-09 05:03:00,
2013-08-09 00:08:00,69.7,64.0,30.01,SE,136,0.0,0.0,82,0.00,,---,0.00,VWS V14.01,2013-08-09 05:08:00,
2013-08-09 00:13:00,69.5,63.8,30.01,South,173,0.0,0.0,82,0.00,,---,0.00,VWS V14.01,2013-08-09 05:13:00,
2013-08-09 00:18:00,69.4,64.0,30.01,SE,145,0.0,0.0,83,0.00,,---,0.00,VWS V14.01,2013-08-09 05:18:00,
2013-08-09 00:23:00,69.2,63.8,30.01,SE,146,0.0,0.0,83,0.00,,---,0.00,VWS V14.01,2013-08-09 05:23:00,
2013-08-09 00:28:00,69.1,63.7,30.01,SSE,153,0.0,0.0,83,0.00,,---,0.00,VWS V14.01,2013-08-09 05:28:00,
2013-08-09 00:30:00,69.1,63.7,30.01,SSE,152,0.0,0.0,83,0.00,,---,0.00,VWS V14.01,2013-08-09 05:30:00,
2013-08-09 00:33:00,69.0,64.0,30.01,SE,141,0.0,0.0,84,0.00,,---,0.00,VWS V14.01,2013-08-09 05:33:00,
2013-08-09 00:38:00,68.8,63.8,30.02,SW,224,0.0,0.0,84,0.00,,---,0.00,VWS V14.01,2013-08-09 05:38:00,
2013-08-09 00:43:00,68.7,63.3,30.02,SW,224,0.0,0.0,83,0.00,,---,0.00,VWS V14.01,2013-08-09 05:43:00,
2013-08-09 00:48:00,68.7,63.3,30.01,ESE,120,0.0,0.0,83,0.00,,---,0.00,VWS V14.01,2013-08-09 05:48:00,
2013-08-09 00:53:00,68.8,63.4,30.01,ESE,120,0.0,0.0,83,0.00,,---,0.00,VWS V14.01,2013-08-09 05:53:00,
2013-08-09 00:58:00,68.8,63.8,30.02,ESE,120,0.0,0.0,84,0.00,,---,0.00,VWS V14.01,2013-08-09 05:58:00,
2013-08-09 01:03:00,68.7,63.7,30.02,ESE,120,0.0,0.0,84,0.00,,---,0.00,VWS V14.01,2013-08-09 06:03:00,
2013-08-09 01:08:00,68.6,63.6,30.02,ESE,120,0.0,0.0,84,0.00,,---,0.00,VWS V14.01,2013-08-09 06:08:00,
2013-08-09 01:13:00,68.5,63.8,30.02,ESE,120,0.0,0.0,85,0.00,,---,0.00,VWS V14.01,2013-08-09 06:13:00,
2013-08-09 01:19:00,68.6,63.9,30.02,ESE,120,0.0,0.0,85,0.00,,---,0.00,VWS V14.01,2013-08-09 06:19:00,
2013-08-09 01:24:00,68.5,63.8,30.02,ESE,120,0.0,0.0,85,0.00,,---,0.00,VWS V14.01,2013-08-09 06:24:00,
2013-08-09 01:29:00,68.4,63.7,30.02,ESE,120,0.0,0.0,85,0.00,,---,0.00,VWS V14.01,2013-08-09 06:29:00,
2013-08-09 01:30:00,68.4,63.7,30.02,ESE,120,0.0,0.0,85,0.00,,---,0.00,VWS V14.01,2013-08-09 06:30:00,
2013-08-09 01:34:00,68.1,63.4,30.02,ESE,120,0.0,0.0,85,0.00,,---,0.00,VWS V14.01,2013-08-09 06:34:00,
2013-08-09 01:39:00,68.0,63.7,30.02,ESE,120,0.0,0.0,86,0.00,,---,0.00,VWS V14.01,2013-08-09 06:39:00,
2013-08-09 01:44:00,67.8,63.1,30.01,ESE,120,0.0,0.0,85,0.00,,---,0.00,VWS V14.01,2013-08-09 06:44:00,
2013-08-09 01:49:00,67.7,63.0,30.01,ESE,120,0.0,0.0,85,0.00,,---,0.00,VWS V14.01,2013-08-09 06:49:00,
2013-08-09 01:54:00,67.7,63.0,30.01,ESE,120,0.0,0.0,85,0.00,,---,0.00,VWS V14.01,2013-08-09 06:54:00,
2013-08-09 01:59:00,67.7,63.0,30.02,ESE,120,0.0,0.0,85,0.00,,---,0.00,VWS V14.01,2013-08-09 06:59:00,
2013-08-09 02:00:00,67.7,63.0,30.02,ESE,120,0.0,0.0,85,0.00,,---,0.00,VWS V14.01,2013-08-09 07:00:00,
2013-08-09 02:04:00,67.5,62.8,30.02,ESE,120,0.0,0.0,85,0.00,,---,0.00,VWS V14.01,2013-08-09 07:04:00,
2013-08-09 02:09:00,67.4,62.7,30.02,ESE,120,0.0,0.0,85,0.00,,---,0.00,VWS V14.01,2013-08-09 07:09:00,
2013-08-09 02:14:00,67.2,62.5,30.02,ESE,120,0.0,0.0,85,0.00,,---,0.00,VWS V14.01,2013-08-09 07:14:00,
2013-08-09 02:19:00,67.0,62.7,30.02,ESE,120,0.0,0.0,86,0.00,,---,0.00,VWS V14.01,2013-08-09 07:19:00,
2013-08-09 02:24:00,66.9,62.6,30.01,ESE,120,0.0,0.0,86,0.00,,---,0.00,VWS V14.01,2013-08-09 07:24:00,
2013-08-09 02:29:00,66.9,62.9,30.01,ESE,120,0.0,0.0,87,0.00,,---,0.00,VWS V14.01,2013-08-09 07:29:00,
2013-08-09 02:34:00,67.1,63.1,30.01,ESE,120,0.0,0.0,87,0.00,,---,0.00,VWS V14.01,2013-08-09 07:34:00,
2013-08-09 02:39:00,67.5,63.2,30.01,ESE,120,0.0,0.0,86,0.00,,---,0.00,VWS V14.01,2013-08-09 07:39:00,
2013-08-09 02:44:00,67.6,63.3,30.01,ESE,120,0.0,0.0,86,0.00,,---,0.00,VWS V14.01,2013-08-09 07:44:00,
2013-08-09 02:49:00,67.6,63.3,30.01,ESE,120,0.0,0.0,86,0.00,,---,0.00,VWS V14.01,2013-08-09 07:49:00,
2013-08-09 02:55:00,67.7,63.4,30.01,ESE,120,0.0,0.0,86,0.00,,---,0.00,VWS V14.01,2013-08-09 07:55:00,
2013-08-09 03:00:00,67.8,63.5,30.00,ESE,120,0.0,0.0,86,0.00,,---,0.00,VWS V14.01,2013-08-09 08:00:00,
2013-08-09 03:05:00,67.8,63.5,30.00,ESE,120,0.0,0.0,86,0.00,,---,0.00,VWS V14.01,2013-08-09 08:05:00,
2013-08-09 03:10:00,67.7,63.4,30.00,ESE,120,0.0,0.0,86,0.00,,---,0.00,VWS V14.01,2013-08-09 08:10:00,
2013-08-09 03:15:00,67.5,63.2,30.01,ESE,120,0.0,0.0,86,0.00,,---,0.00,VWS V14.01,2013-08-09 08:15:00,
2013-08-09 03:20:00,67.3,63.3,30.01,ESE,120,0.0,0.0,87,0.00,,---,0.00,VWS V14.01,2013-08-09 08:20:00,
2013-08-09 03:25:00,67.1,63.1,30.01,ESE,120,0.0,0.0,87,0.00,,---,0.00,VWS V14.01,2013-08-09 08:25:00,
2013-08-09 03:30:00,66.9,63.2,30.01,ESE,120,0.0,0.0,88,0.00,,---,0.00,VWS V14.01,2013-08-09 08:30:00,
2013-08-09 03:35:00,66.7,63.0,30.01,ESE,120,0.0,0.0,88,0.00,,---,0.00,VWS V14.01,2013-08-09 08:35:00,
2013-08-09 03:40:00,66.6,63.3,30.01,ESE,120,0.0,0.0,89,0.00,,---,0.00,VWS V14.01,2013-08-09 08:40:00,
2013-08-09 03:45:00,66.7,63.4,30.01,ESE,120,0.0,0.0,89,0.00,,---,0.00,VWS V14.01,2013-08-09 08:45:00,
2013-08-09 03:50:00,66.7,63.0,30.01,ESE,120,0.0,0.0,88,0.00,,---,0.00,VWS V14.01,2013-08-09 08:50:00,
2013-08-09 03:55:00,66.5,63.2,30.01,ESE,120,0.0,0.0,89,0.00,,---,0.00,VWS V14.01,2013-08-09 08:55:00,
2013-08-09 04:00:00,66.3,63.0,30.01,ESE,120,0.0,0.0,89,0.00,,---,0.00,VWS V14.01,2013-08-09 09:00:00,
2013-08-09 04:05:00,66.1,62.8,30.01,ESE,120,0.0,0.0,89,0.00,,---,0.00,VWS V14.01,2013-08-09 09:05:00,
2013-08-09 04:10:00,66.1,63.1,30.01,ESE,120,0.0,0.0,90,0.00,,---,0.00,VWS V14.01,2013-08-09 09:10:00,
2013-08-09 04:15:00,65.9,62.9,30.01,ESE,120,0.0,0.0,90,0.00,,---,0.00,VWS V14.01,2013-08-09 09:15:00,
2013-08-09 04:16:00,65.8,62.8,30.01,ESE,120,0.0,0.0,90,0.00,,---,0.00,VWS V14.01,2013-08-09 09:16:00,
2013-08-09 04:21:00,65.6,62.6,30.01,ESE,120,0.0,0.0,90,0.00,,---,0.00,VWS V14.01,2013-08-09 09:21:00,
2013-08-09 04:26:00,65.6,62.9,30.01,SW,236,0.0,0.0,91,0.00,,---,0.00,VWS V14.01,2013-08-09 09:26:00,
2013-08-09 04:30:00,65.8,63.1,30.01,SW,236,0.0,0.0,91,0.00,,---,0.00,VWS V14.01,2013-08-09 09:30:00,
2013-08-09 04:31:00,65.9,63.2,30.01,SW,236,0.0,0.0,91,0.00,,---,0.00,VWS V14.01,2013-08-09 09:31:00,
2013-08-09 04:36:00,66.0,63.0,30.01,SW,236,0.0,0.0,90,0.00,,---,0.00,VWS V14.01,2013-08-09 09:36:00,
2013-08-09 04:41:00,66.0,63.0,30.01,SW,236,0.0,0.0,90,0.00,,---,0.00,VWS V14.01,2013-08-09 09:41:00,
2013-08-09 04:46:00,65.9,62.9,30.02,SW,236,0.0,0.0,90,0.00,,---,0.00,VWS V14.01,2013-08-09 09:46:00,
2013-08-09 04:51:00,65.8,63.1,30.01,SW,236,0.0,0.0,91,0.00,,---,0.00,VWS V14.01,2013-08-09 09:51:00,
2013-08-09 04:56:00,65.8,63.1,30.01,SW,236,0.0,0.0,91,0.00,,---,0.00,VWS V14.01,2013-08-09 09:56:00,
2013-08-09 05:01:00,65.8,63.1,30.01,SW,236,0.0,0.0,91,0.00,,---,0.00,VWS V14.01,2013-08-09 10:01:00,
2013-08-09 05:06:00,65.8,63.1,30.01,SW,236,0.0,0.0,91,0.00,,---,0.00,VWS V14.01,2013-08-09 10:06:00,
2013-08-09 05:11:00,65.7,63.0,30.02,SW,236,0.0,0.0,91,0.00,,---,0.00,VWS V14.01,2013-08-09 10:11:00,
2013-08-09 05:16:00,65.9,63.5,30.02,SW,236,0.0,0.0,92,0.00,,---,0.00,VWS V14.01,2013-08-09 10:16:00,
2013-08-09 05:21:00,66.1,63.4,30.02,SW,236,0.0,0.0,91,0.00,,---,0.00,VWS V14.01,2013-08-09 10:21:00,
2013-08-09 05:26:00,66.2,63.5,30.02,SW,236,0.0,0.0,91,0.00,,---,0.00,VWS V14.01,2013-08-09 10:26:00,
2013-08-09 05:30:00,66.2,63.5,30.02,SW,236,0.0,0.0,91,0.00,,---,0.00,VWS V14.01,2013-08-09 10:30:00,
2013-08-09 05:31:00,66.3,63.6,30.02,SW,236,0.0,0.0,91,0.00,,---,0.00,VWS V14.01,2013-08-09 10:31:00,
2013-08-09 05:37:00,66.4,63.7,30.02,SW,236,0.0,0.0,91,0.00,,---,0.00,VWS V14.01,2013-08-09 10:37:00,
2013-08-09 05:42:00,66.4,63.7,30.02,SW,236,0.0,0.0,91,0.00,,---,0.00,VWS V14.01,2013-08-09 10:42:00,
2013-08-09 05:47:00,66.6,63.6,30.02,SW,236,0.0,0.0,90,0.00,,---,0.00,VWS V14.01,2013-08-09 10:47:00,
2013-08-09 05:52:00,66.8,63.8,30.02,SW,236,0.0,0.0,90,0.00,,---,0.00,VWS V14.01,2013-08-09 10:52:00,
2013-08-09 05:57:00,66.9,63.9,30.03,SW,236,0.0,0.0,90,0.00,,---,0.00,VWS V14.01,2013-08-09 10:57:00,
2013-08-09 06:00:00,66.9,63.6,30.03,SW,236,0.0,0.0,89,0.00,,---,0.00,VWS V14.01,2013-08-09 11:00:00,
2013-08-09 06:02:00,66.9,63.6,30.03,West,277,0.0,0.0,89,0.00,,---,0.00,VWS V14.01,2013-08-09 11:02:00,
2013-08-09 06:07:00,67.1,63.8,30.03,West,276,0.0,0.0,89,0.00,,---,0.00,VWS V14.01,2013-08-09 11:07:00,
2013-08-09 06:12:00,67.2,63.8,30.03,West,277,0.0,0.0,89,0.00,,---,0.00,VWS V14.01,2013-08-09 11:12:00,